Home   Weather   Freistadt   Past weeks

Flag for Austria Past Weather in Freistadt, Upper Austria, Austria — Yesterday and Last 2 Weeks

Now
58 °F

Cool.


Feels Like: 58 °F
Forecast: 58 / 80 °F
Wind: No wind

Location: Rohrbach

Current Time: Jun 26, 2017 at 7:26:13 am

Latest Report: Jun 26, 2017 at 6:00 am


Visibility: N/A

Pressure: 29.96 "Hg (28.01 "Hg at 565m altitude)

Humidity: 90%

Dew Point: 55 °F

Location of FreistadtLocation

Past Weather in Freistadt — Graph

°F

Freistadt Temperature Yesterday

Maximum temperature yesterday: 71 °F (at 10:00 am)
Minimum temperature yesterday: 60 °F (at 6:00 am)
Average temperature yesterday: 66 °F

High & Low Weather Summary for the Past Weeks

 TemperatureHumidityPressure
High87 °F (Jun 22, 4:00 pm)95% (Jun 23, 3:00 am)30.31 "Hg (Jun 23, 3:00 am)
Low47 °F (Jun 18, 5:00 am)28% (Jun 20, 4:00 pm)29.84 "Hg (Jun 22, 7:00 pm)
Average68 °F58%30.02 "Hg
* Reported Jun 11 6:00 am — Jun 26 6:00 am, Freistadt. Weather by CustomWeather, © 2017

Note: Actual official high and low records may vary slightly from our data, if they occured in-between our weather recording intervals... More about our weather records

Advertising

Freistadt Weather History for the Previous 24 Hours

Scroll right to see more
 ConditionsComfort  
Time TempWeatherWind HumidityBarometerVisibility
6:00 am
Mon, Jun 26
58 °FCool.No wind90%29.96 "HgN/A
5:00 am59 °FCool.No wind88%29.96 "HgN/A
4:00 am59 °FCool.1 mph88%29.96 "HgN/A
3:00 am62 °FCool.1 mph80%29.95 "HgN/A
2:00 am64 °FMild.1 mph78%29.96 "HgN/A
1:00 am64 °FMild.1 mph75%29.95 "HgN/A
12:00 am65 °FMild.1 mph75%29.95 "HgN/A
11:00 pm
Sun, Jun 25
65 °FMild.2 mph75%29.94 "HgN/A
10:00 pm65 °FMild.1 mph76%29.94 "HgN/A
9:00 pm66 °FMild.2 mph74%29.92 "HgN/A
8:00 pm67 °FMild.2 mph70%29.92 "HgN/A
7:00 pm68 °FMild.3 mph74%29.90 "HgN/A
6:00 pm66 °FMild.3 mph77%29.93 "HgN/A
5:00 pm67 °FMild.2 mph73%29.92 "HgN/A
4:00 pm66 °FMild.2 mph74%29.94 "HgN/A
3:00 pm67 °FFog.5 mph76%29.94 "HgN/A
2:00 pm67 °FMild.5 mph82%29.95 "HgN/A
1:00 pm67 °FMild.1 mph75%29.94 "HgN/A
12:00 pm68 °FFog.2 mph65%29.95 "HgN/A
11:00 am70 °FMild.2 mph57%29.94 "HgN/A
10:00 am71 °FMild.2 mph53%29.93 "HgN/A
9:00 am69 °FMild.2 mph62%29.94 "HgN/A
8:00 am65 °FMild.1 mph76%29.95 "HgN/A
7:00 am61 °FCool.1 mph82%29.95 "HgN/A
Weather by CustomWeather, © 2017

See weather overviewHow to use our weather pages